SUNNYSIDE Weather Reports


time (UTC)temp
C
wind
direction
speed
KPH
gust
KPH
rain 1hr
cm
rain 24hr
cm
rain mn
cm
humidity
%
barometer
mb
20260510023055 5 342 3.2 12.9 0.00 0.00 0.00 50 986.9
20260510022558 5 319 4.8 12.9 0.00 0.00 0.00 50 986.8
20260510022053 5 325 6.4 9.7 0.00 0.00 0.00 50 986.8
20260510021602 5 341 4.8 12.9 0.00 0.00 0.00 49 986.5
20260510021052 6 331 8.0 14.5 0.00 0.00 0.00 48 986.6
20260510020552 6 343 6.4 16.1 0.00 0.00 0.00 47 986.4
20260510020052 6 343 9.7 19.3 0.00 0.00 0.00 47 986.4
20260510015550 6 323 8.0 20.9 0.00 0.00 0.00 47 986.4
20260510015049 6 314 14.5 20.9 0.00 0.00 0.00 46 986.2
20260510014553 6 321 14.5 20.9 0.00 0.00 0.00 46 986.2
20260510014049 6 323 12.9 24.1 0.00 0.00 0.00 45 986.0
20260510013552 7 338 16.1 24.1 0.00 0.00 0.00 45 985.9
20260510013053 7 335 11.3 22.5 0.00 0.00 0.00 45 985.9
20260510012548 7 322 12.9 25.7 0.00 0.00 0.00 45 985.9
20260510012046 7 346 17.7 25.7 0.00 0.00 0.00 45 985.7
20260510011546 7 342 11.3 20.9 0.00 0.00 0.00 46 985.6
20260510011045 7 337 11.3 22.5 0.00 0.00 0.00 46 985.6
20260510010545 7 346 12.9 24.1 0.00 0.00 0.00 46 985.6
20260510010047 7 342 14.5 24.1 0.00 0.00 0.00 46 985.5
20260510005545 7 311 12.9 20.9 0.00 0.00 0.00 46 985.5
20260510005043 7 355 12.9 20.9 0.00 0.00 0.00 46 985.5
20260510004544 7 350 9.7 19.3 0.00 0.00 0.00 46 985.5
20260510004044 7 332 12.9 20.9 0.00 0.00 0.00 46 985.4
20260510003543 7 360 11.3 22.5 0.00 0.00 0.00 47 985.4
20260510003057 7 342 12.9 22.5 0.00 0.00 0.00 46 985.4
20260510002543 7 10 12.9 24.1 0.00 0.00 0.00 46 985.4
20260510002041 7 343 14.5 24.1 0.00 0.00 0.00 46 985.3
20260510001541 7 328 11.3 24.1 0.00 0.00 0.00 45 985.3
20260510001041 7 328 11.3 24.1 0.00 0.00 0.00 45 985.3
20260510000541 7 323 14.5 24.1 0.00 0.00 0.00 45 985.3
20260510000041 7 360 12.9 24.1 0.00 0.00 0.00 44 985.2
20260509235539 7 342 12.9 22.5 0.00 0.00 0.00 44 985.1
20260509235039 7 5 14.5 24.1 0.00 0.00 0.00 44 985.1
20260509234540 7 348 9.7 24.1 0.00 0.00 0.00 44 985.1
20260509234040 7 340 14.5 24.1 0.00 0.00 0.00 43 985.0
20260509233539 7 346 12.9 27.4 0.00 0.00 0.00 43 985.0
20260509233038 8 30 16.1 27.4 0.00 0.00 0.00 42 985.0
20260509232538 7 348 14.5 25.7 0.00 0.00 0.00 42 984.9
20260509232037 7 334 17.7 25.7 0.00 0.00 0.00 42 984.9
20260509231537 8 315 16.1 25.7 0.00 0.00 0.00 42 984.8
20260509231036 8 306 14.5 24.1 0.00 0.00 0.00 42 984.8
20260509230536 8 345 16.1 24.1 0.00 0.00 0.00 41 984.7
20260509230036 8 329 14.5 24.1 0.00 0.00 0.00 41 984.6
20260509225535 8 355 12.9 24.1 0.00 0.00 0.00 41 984.6
20260509225034 8 340 12.9 22.5 0.00 0.00 0.00 40 984.5
20260509224534 8 34 8.0 22.5 0.00 0.00 0.00 41 984.6
20260509224034 8 349 8.0 22.5 0.00 0.00 0.00 40 984.4
20260509223534 8 41 8.0 24.1 0.00 0.00 0.00 41 984.4
20260509223034 8 337 16.1 24.1 0.00 0.00 0.00 39 984.5
20260509222533 8 355 11.3 22.5 0.00 0.00 0.00 40 984.5
20260509222035 8 329 14.5 25.7 0.00 0.00 0.00 39 984.4
20260509221533 8 355 11.3 25.7 0.00 0.00 0.00 39 984.5
20260509221033 8 333 14.5 22.5 0.00 0.00 0.00 39 984.5
20260509220533 8 331 11.3 25.7 0.00 0.00 0.00 39 984.4
20260509220040 8 328 9.7 25.7 0.00 0.00 0.00 39 984.3
20260509215532 8 5 12.9 20.9 0.00 0.00 0.00 39 984.4
20260509215031 8 355 9.7 20.9 0.00 0.00 0.00 39 984.3
20260509214532 8 332 12.9 20.9 0.00 0.00 0.00 39 984.3
20260509214032 8 326 12.9 27.4 0.00 0.00 0.00 39 984.1
20260509213530 8 323 12.9 29.0 0.00 0.00 0.00 38 984.2
20260509213030 8 341 12.9 22.5 0.00 0.00 0.00 38 984.2
20260509212530 8 342 12.9 25.7 0.00 0.00 0.00 39 984.0
20260509212030 8 342 16.1 27.4 0.00 0.00 0.00 38 984.1
20260509211529 8 343 17.7 27.4 0.00 0.00 0.00 37 984.2
20260509211029 8 325 16.1 27.4 0.00 0.00 0.00 38 984.1
20260509210530 8 344 16.1 27.4 0.00 0.00 0.00 38 984.0
20260509210029 9 312 17.7 25.7 0.00 0.00 0.00 36 984.2
20260509205528 9 315 16.1 29.0 0.00 0.00 0.00 38 984.0
20260509205027 9 342 17.7 29.0 0.00 0.00 0.00 37 983.9
20260509204527 9 313 14.5 29.0 0.00 0.00 0.00 38 983.9
20260509204028 9 360 19.3 29.0 0.00 0.00 0.00 36 983.9
20260509203530 9 316 16.1 27.4 0.00 0.00 0.00 36 984.0
20260509203035 9 325 17.7 29.0 0.00 0.00 0.00 37 984.0
20260509202529 9 334 19.3 29.0 0.00 0.00 0.00 38 983.9
20260509202027 8 332 19.3 38.6 0.00 0.00 0.00 37 983.9
20260509201527 9 345 22.5 38.6 0.00 0.00 0.00 36 983.9
20260509201026 9 319 17.7 29.0 0.00 0.00 0.00 36 983.9
20260509200527 9 292 16.1 29.0 0.00 0.00 0.00 36 983.9
20260509200036 9 338 19.3 32.2 0.00 0.00 0.00 36 983.9
20260509195526 10 313 20.9 32.2 0.00 0.00 0.00 37 984.1
20260509195026 9 325 14.5 29.0 0.00 0.00 0.00 36 983.9
20260509194541 10 309 19.3 35.4 0.00 0.00 0.00 35 984.0
20260509194029 10 346 24.1 35.4 0.00 0.00 0.00 35 983.9
20260509193525 10 346 17.7 37.0 0.00 0.00 0.00 38 983.9
20260509193025 10 355 17.7 29.0 0.00 0.00 0.00 37 983.8
20260509192524 10 347 16.1 27.4 0.00 0.00 0.00 38 983.9
20260509192024 10 31 16.1 32.2 0.00 0.00 0.00 39 983.9
20260509191524 10 336 19.3 32.2 0.00 0.00 0.00 38 983.8
20260509191026 10 355 17.7 30.6 0.00 0.00 0.00 38 983.9
20260509190523 10 360 14.5 32.2 0.00 0.00 0.00 39 983.8
20260509190023 10 346 17.7 32.2 0.00 0.00 0.00 38 983.8
20260509185522 10 346 19.3 33.8 0.00 0.00 0.00 38 983.7
20260509185023 10 355 17.7 33.8 0.00 0.00 0.00 39 983.8
20260509184622 10 326 20.9 32.2 0.00 0.00 0.00 38 983.8
20260509184026 10 293 17.7 32.2 0.00 0.00 0.00 38 983.8
20260509183521 9 338 17.7 33.8 0.00 0.00 0.00 37 983.7
20260509183021 10 342 19.3 33.8 0.00 0.00 0.00 38 983.8
20260509182524 9 311 19.3 30.6 0.00 0.00 0.00 39 983.6
20260509182023 10 335 20.9 30.6 0.00 0.00 0.00 38 983.8
20260509181520 10 325 19.3 35.4 0.00 0.00 0.00 37 983.7
20260509181020 9 355 20.9 35.4 0.00 0.00 0.00 38 983.7
20260509180523 9 288 22.5 33.8 0.00 0.00 0.00 38 983.8
20260509180019 9 296 22.5 37.0 0.00 0.00 0.00 37 983.7
20260509175518 9 328 22.5 37.0 0.00 0.00 0.00 37 983.7
20260509175018 9 307 16.1 33.8 0.00 0.00 0.00 38 983.6
20260509174536 9 336 22.5 35.4 0.00 0.00 0.00 37 983.6
20260509174021 8 306 17.7 35.4 0.00 0.00 0.00 38 983.7
20260509173516 8 316 19.3 33.8 0.00 0.00 0.00 38 983.7
20260509173016 9 331 24.1 33.8 0.00 0.00 0.00 37 983.7
20260509172519 8 309 19.3 32.2 0.00 0.00 0.00 40 983.7
20260509172016 8 290 19.3 32.2 0.00 0.00 0.00 38 983.7
20260509171513 8 273 20.9 38.6 0.00 0.00 0.00 37 983.7
20260509171011 8 278 22.5 38.6 0.00 0.00 0.00 37 983.6
20260509170511 8 345 20.9 33.8 0.00 0.00 0.00 38 983.6
20260509170010 8 318 20.9 32.2 0.00 0.00 0.00 37 983.5
20260509165508 8 330 19.3 29.0 0.00 0.00 0.00 39 983.5
20260509165007 8 321 20.9 33.8 0.00 0.00 0.00 40 983.6
20260509164506 8 288 19.3 35.4 0.00 0.00 0.00 40 983.6
20260509164005 8 298 19.3 38.6 0.00 0.00 0.00 39 983.5
20260509163503 8 296 17.7 32.2 0.00 0.00 0.00 40 983.4
20260509163005 8 326 20.9 32.2 0.00 0.00 0.00 40 983.5
20260509162504 7 302 19.3 32.2 0.00 0.00 0.00 39 983.5
20260509162100 7 292 19.3 35.4 0.00 0.00 0.00 41 983.4
20260509161603 7 293 20.9 35.4 0.00 0.00 0.00 40 983.5
20260509161057 7 305 19.3 30.6 0.00 0.00 0.00 40 983.6
20260509160557 7 336 22.5 30.6 0.00 0.00 0.00 40 983.4
20260509160055 7 321 17.7 32.2 0.00 0.00 0.00 41 983.4
20260509155552 7 286 20.9 32.2 0.00 0.00 0.00 42 983.3
20260509155051 7 294 19.3 33.8 0.00 0.00 0.00 42 983.4
20260509154550 7 262 19.3 32.2 0.00 0.00 0.00 43 983.3
20260509154050 7 309 20.9 33.8 0.00 0.00 0.00 42 983.3
20260509153550 6 303 19.3 33.8 0.00 0.00 0.00 43 983.2
20260509153053 6 311 17.7 30.6 0.00 0.00 0.00 43 983.2
20260509152546 6 315 17.7 32.2 0.00 0.00 0.00 44 983.2
20260509152045 6 346 20.9 32.2 0.00 0.00 0.00 42 983.4
20260509151545 6 319 19.3 30.6 0.00 0.00 0.00 43 983.4
20260509151043 6 333 19.3 32.2 0.00 0.00 0.00 43 983.3
20260509150546 6 275 19.3 29.0 0.00 0.00 0.00 42 983.3
20260509150044 6 325 16.1 29.0 0.00 0.00 0.00 44 983.2
20260509145541 6 281 17.7 29.0 0.00 0.00 0.00 43 983.2
20260509145039 6 287 19.3 30.6 0.00 0.00 0.00 45 983.1
20260509144540 6 275 19.3 30.6 0.00 0.00 0.00 44 983.2
20260509144038 6 323 20.9 29.0 0.00 0.00 0.00 44 983.1
20260509143538 6 315 19.3 27.4 0.00 0.00 0.00 44 983.2
20260509143039 5 314 17.7 27.4 0.00 0.00 0.00 44 983.1
20260509142536 5 324 14.5 27.4 0.00 0.00 0.00 46 983.2
20260509142039 5 340 17.7 29.0 0.00 0.00 0.00 46 983.1
20260509141536 5 276 17.7 29.0 0.00 0.00 0.00 46 983.1
20260509141035 5 298 17.7 27.4 0.00 0.00 0.00 46 983.2
20260509140534 5 302 16.1 27.4 0.00 0.00 0.00 46 983.0
20260509140040 5 309 17.7 27.4 0.00 0.00 0.00 46 983.1
20260509135535 5 318 14.5 25.7 0.00 0.00 0.00 48 983.1
20260509135033 4 273 14.5 22.5 0.00 0.00 0.00 49 983.1
20260509134534 4 303 14.5 27.4 0.00 0.00 0.00 50 983.1
20260509134032 3 314 16.1 24.1 0.00 0.00 0.00 51 983.1
20260509133532 3 305 14.5 24.1 0.00 0.00 0.00 51 983.1
20260509133032 3 293 14.5 22.5 0.00 0.00 0.00 51 983.1
20260509132532 3 285 11.3 20.9 0.00 0.00 0.00 52 983.1
20260509132031 2 290 9.7 19.3 0.00 0.00 0.00 53 983.0
20260509131532 2 332 11.3 20.9 0.00 0.00 0.00 53 983.0
20260509131030 2 295 11.3 20.9 0.00 0.00 0.00 53 983.0
20260509130530 2 296 9.7 19.3 0.00 0.00 0.00 54 982.9
20260509130030 2 294 9.7 19.3 0.00 0.00 0.00 54 982.8
20260509125531 2 306 12.9 22.5 0.00 0.00 0.00 54 982.8
20260509125028 2 269 14.5 22.5 0.00 0.00 0.00 54 982.8
20260509124528 2 295 12.9 20.9 0.00 0.00 0.00 53 982.7
20260509124027 1 304 12.9 20.9 0.00 0.00 0.00 53 982.6
20260509123527 1 292 8.0 22.5 0.00 0.00 0.00 54 982.5
20260509123027 1 310 11.3 22.5 0.00 0.00 0.00 54 982.6
20260509122526 1 290 11.3 19.3 0.00 0.00 0.00 54 982.4
20260509122026 1 302 11.3 19.3 0.00 0.00 0.00 54 982.5
20260509121525 1 288 9.7 14.5 0.00 0.00 0.00 54 982.3
20260509121024 1 305 8.0 16.1 0.00 0.00 0.00 55 982.2
20260509120623 1 272 9.7 16.1 0.00 0.00 0.00 55 982.1
20260509120028 0 311 9.7 16.1 0.00 0.00 0.00 55 981.9
20260509115521 0 289 8.0 16.1 0.00 0.00 0.00 56 981.9
20260509115020 0 304 8.0 16.1 0.00 0.00 0.00 56 981.8
20260509114523 0 304 8.0 14.5 0.00 0.00 0.00 56 981.7
20260509114019 0 313 9.7 14.5 0.00 0.00 0.00 56 981.6
20260509113518 0 306 9.7 14.5 0.00 0.00 0.00 56 981.6
20260509113017 0 304 8.0 16.1 0.00 0.00 0.00 56 981.5
20260509112517 0 324 8.0 16.1 0.00 0.00 0.00 56 981.3
20260509112015 0 309 8.0 14.5 0.00 0.00 0.00 56 981.2
20260509111514 0 307 8.0 14.5 0.00 0.00 0.00 56 981.1
20260509111014 0 310 8.0 14.5 0.00 0.00 0.00 56 981.2
20260509110513 0 299 8.0 16.1 0.00 0.00 0.00 56 981.2
20260509110013 0 331 8.0 16.1 0.00 0.00 0.00 56 981.0
20260509105512 0 301 8.0 16.1 0.00 0.00 0.00 56 980.9
20260509105009 0 309 8.0 14.5 0.00 0.00 0.00 56 980.9
20260509104510 0 302 8.0 16.1 0.00 0.00 0.00 57 980.8
20260509104008 0 313 8.0 16.1 0.00 0.00 0.00 57 980.7
20260509103507 0 311 6.4 16.1 0.00 0.00 0.00 57 980.7
20260509103005 0 294 6.4 16.1 0.00 0.00 0.00 57 980.5
20260509102505 0 315 8.0 12.9 0.00 0.00 0.00 57 980.5
20260509102005 0 319 9.7 12.9 0.00 0.00 0.00 57 980.5
20260509101503 0 297 6.4 12.9 0.00 0.00 0.00 57 980.4
20260509101002 0 295 6.4 16.1 0.00 0.00 0.00 56 980.4
20260509100502 0 292 6.4 16.1 0.00 0.00 0.00 56 980.3
20260509100005 0 298 8.0 16.1 0.00 0.00 0.00 56 980.3
20260509095503 0 303 9.7 16.1 0.00 0.00 0.00 56 980.2
20260509095100 0 284 9.7 16.1 0.00 0.00 0.00 56 980.2
20260509094559 0 294 11.3 17.7 0.00 0.00 0.00 56 980.2
20260509094058 0 296 8.0 17.7 0.00 0.00 0.00 55 980.1
20260509093558 0 316 9.7 17.7 0.00 0.00 0.00 55 980.2
20260509093057 0 296 8.0 14.5 0.00 0.00 0.00 55 980.0
20260509092559 0 315 8.0 14.5 0.00 0.00 0.00 54 979.9
20260509092058 0 286 6.4 14.5 0.00 0.00 0.00 54 979.8
20260509091554 0 275 6.4 12.9 0.00 0.00 0.00 54 979.9
20260509091056 0 277 4.8 12.9 0.00 0.00 0.00 54 979.7
20260509090553 0 301 6.4 11.3 0.00 0.00 0.00 54 979.6
20260509090056 0 313 6.4 12.9 0.00 0.00 0.00 54 979.5
20260509085552 0 303 8.0 12.9 0.00 0.00 0.00 54 979.4
20260509085053 0 300 6.4 11.3 0.00 0.00 0.00 55 979.4
20260509084551 0 306 4.8 9.7 0.00 0.00 0.00 55 979.2
20260509084050 0 296 3.2 8.0 0.00 0.00 0.00 55 979.2
20260509083552 0 292 3.2 8.0 0.00 0.00 0.00 56 979.1
20260509083057 0 301 3.2 6.4 0.00 0.00 0.00 56 979.0
20260509082548 0 288 3.2 6.4 0.00 0.00 0.00 56 978.9
20260509082048 0 288 3.2 6.4 0.00 0.00 0.00 56 979.0
20260509081547 0 298 3.2 8.0 0.00 0.00 0.00 56 978.9
20260509081047 0 298 3.2 8.0 0.00 0.00 0.00 56 978.9
20260509080545 0 297 3.2 6.4 0.00 0.00 0.00 56 978.8
20260509080046 0 296 3.2 6.4 0.00 0.00 0.00 56 978.8
20260509075545 0 288 3.2 11.3 0.00 0.00 0.00 56 978.7
20260509075044 0 291 4.8 12.9 0.00 0.00 0.00 56 978.7
20260509074547 0 282 4.8 12.9 0.00 0.00 0.00 56 978.7
20260509074043 0 284 4.8 12.9 0.00 0.00 0.00 56 978.7
20260509073542 0 279 4.8 12.9 0.00 0.00 0.00 56 978.7
20260509073043 0 295 6.4 12.9 0.00 0.00 0.00 56 978.7
20260509072544 0 277 4.8 6.4 0.00 0.00 0.00 56 978.6
20260509072042 0 275 4.8 6.4 0.00 0.00 0.00 56 978.5
20260509071541 0 287 3.2 6.4 0.00 0.00 0.00 56 978.5
20260509071038 1 290 3.2 8.0 0.00 0.00 0.00 56 978.4
20260509070538 1 306 3.2 8.0 0.00 0.00 0.00 56 978.4
20260509070041 1 296 4.8 8.0 0.00 0.00 0.00 56 978.4
20260509065539 1 303 1.6 4.8 0.00 0.00 0.00 56 978.4
20260509065037 1 295 1.6 4.8 0.00 0.00 0.00 56 978.4
20260509064538 1 295 3.2 6.4 0.00 0.00 0.00 56 978.3
20260509064037 1 296 3.2 6.4 0.00 0.00 0.00 56 978.3
20260509063535 1 323 1.6 4.8 0.00 0.00 0.00 55 978.2
20260509063033 1 323 1.6 4.8 0.00 0.00 0.00 54 978.1
20260509062531 1 323 3.2 4.8 0.00 0.00 0.00 54 978.1
20260509062030 1 323 1.6 6.4 0.00 0.00 0.00 54 978.1
20260509061528 1 313 3.2 6.4 0.00 0.00 0.00 53 978.1
20260509061031 2 327 1.6 8.0 0.00 0.00 0.00 53 978.0
20260509060526 2 325 3.2 9.7 0.00 0.00 0.00 53 977.9
20260509060033 2 309 3.2 8.0 0.00 0.00 0.00 52 977.9
20260509055529 2 16 1.6 4.8 0.00 0.00 0.00 51 977.8
20260509055027 2 16 1.6 4.8 0.00 0.00 0.00 50 977.7
20260509054521 3 16 0.0 6.4 0.00 0.00 0.00 49 977.5
20260509054020 3 16 0.0 6.4 0.00 0.00 0.00 49 977.7
20260509053519 3 33 0.0 0.0 0.00 0.00 0.00 49 977.5
20260509053018 3 33 0.0 3.2 0.00 0.00 0.00 49 977.4
20260509052516 3 33 0.0 3.2 0.00 0.00 0.00 48 977.4
20260509052014 4 33 0.0 1.6 0.00 0.00 0.00 47 977.3
20260509051513 5 33 0.0 3.2 0.00 0.00 0.00 46 977.3
20260509051012 5 33 0.0 3.2 0.00 0.00 0.00 45 977.3
20260509050511 5 33 1.6 3.2 0.00 0.00 0.00 44 977.3
20260509050026 5 33 0.0 3.2 0.00 0.00 0.00 43 977.2
20260509045509 6 33 0.0 6.4 0.00 0.00 0.00 43 977.1
20260509045008 6 34 1.6 6.4 0.00 0.00 0.00 43 977.2
20260509044509 6 34 1.6 9.7 0.00 0.00 0.00 42 977.2
20260509044007 6 45 4.8 9.7 0.00 0.00 0.00 43 977.1
20260509043507 6 18 3.2 9.7 0.00 0.00 0.00 42 977.1
20260509043009 6 26 4.8 9.7 0.00 0.00 0.00 42 977.1
20260509042508 6 34 3.2 8.0 0.00 0.00 0.00 43 977.0
20260509042011 6 11 1.6 9.7 0.00 0.00 0.00 43 977.0
20260509041508 6 48 3.2 16.1 0.00 0.00 0.00 42 976.9
20260509041008 6 63 4.8 16.1 0.00 0.00 0.00 42 977.0
20260509040507 6 310 11.3 17.7 0.00 0.00 0.00 42 976.7
20260509040007 6 323 11.3 20.9 0.00 0.00 0.00 41 976.6
20260509035510 6 311 11.3 20.9 0.00 0.00 0.00 41 976.5
20260509035007 6 341 9.7 20.9 0.00 0.00 0.00 40 976.4
20260509034506 6 338 12.9 20.9 0.00 0.00 0.00 39 976.3
20260509034006 6 333 11.3 19.3 0.00 0.00 0.00 38 976.3
20260509033506 6 308 11.3 19.3 0.00 0.00 0.00 38 976.2
20260509033006 6 332 9.7 19.3 0.00 0.00 0.00 37 976.2
20260509032508 6 299 11.3 19.3 0.00 0.00 0.00 36 976.0
20260509032008 6 309 11.3 17.7 0.00 0.00 0.00 36 976.2
20260509031510 7 307 9.7 17.7 0.00 0.00 0.00 35 976.1
20260509031006 7 309 9.7 17.7 0.00 0.00 0.00 34 976.0
20260509030506 7 347 8.0 16.1 0.00 0.00 0.00 34 976.0
20260509030006 7 326 9.7 16.1 0.00 0.00 0.00 33 975.9
20260509025505 7 304 8.0 19.3 0.00 0.00 0.00 34 975.8
20260509025004 7 340 9.7 22.5 0.00 0.00 0.00 33 975.8
20260509024504 7 302 11.3 22.5 0.00 0.00 0.00 32 975.7
20260509024009 7 306 11.3 19.3 0.00 0.00 0.00 32 975.7
20260509023506 7 302 11.3 19.3 0.00 0.00 0.00 31 975.6